DMSP 5D-3 F19 DEB, 39633

Orbit data source: Space-Track

DMSP 5D-3 F19 DEB, 39633 is space debris in SSO originally from a launch on Thu, 03 Apr 2014 UTC launched from the Air Force Western Test Range (AFWTR). Debris objects in space refer to the collection of defunct objects orbiting the Earth. Examples of debris include non-operational satellites, rocket bodies, and fragments generated from explosions, collisions, or faulty payload assembly.

Loading next visibility...
Identifier
39633, 2014-015D
Orbit
SSO
Country
Flag of USUS
Related business
Manufacturer
LM/EW
Mission
Spacecraft
Bus & Motor
Unknown
Mass
Unknown
Launch date (UTC)
2014-04-03 (12 years ago)
Launch vehicle
Unknown
Launch site
Air Force Western Test Range (AFWTR)
Object type
Payload
Rocket body
Debris
Shape & HBR
Unknown shape, 0.1 m
Radar Cross Section
Medium (>0.1 m² and <1 m²)

Expand to show TLE details & history
Last TLE update: 2 days ago

TLE from 2 days ago
0 DMSP 5D-3 F19 DEB
1 39633U 14015D   26171.00416123  .00001202  00000-0  51851-3 0  9997
2 39633  98.6702 183.7159 0006922 103.3199 256.8754 14.26362991632042
Epoch: 2026-06-20T00:05Z
TLE epoch observation values (Epoch: 2026-06-20T00:05:59.530Z)
Latitude
0.00006°
Longitude
-86.00716°
Altitude
807.97 km
Speed
7.449 km/s
True Right ascension
12h 14m 51s
True Declination
0° 00' 00"
Sunlit
Object was in daylight at epoch
Visualization orbit readout
Latitude
Unknown
Longitude
Unknown
Altitude
Unknown
Speed
Unknown
Apparent Right ascension
Unknown
Apparent Declination
Unknown
Sunlit
N/A
Visualization observer readout
Local Sidereal Time
23:08:01
Azimuth
Unknown
Elevation
Unknown
Doppler factor
Unknown
Orbital elements
Apogee altitude
806.031 km
Perigee altitude
796.092 km
Semi-major axis
7,179.199 km
Eccentricity
0.00069
Inclination
98.6702°
RAAN
183.7159°
Arg. of periapsis
103.3199°
True anomaly
256.79817°
Mean anomaly
256.8754°
Eccentric anomaly
256.83678°
Mean motion
3.56804 °/min
Orbital period
100.9 mins
BSTAR
0.00051851
Loading maneuver chart data...
Computing Atmospheric mass density...
Loading historical data...
Loading historical data...
Loading historical data...
Loading historical data...
Loading historical data...
Loading historical data...
Loading historical data...

Documentation

Showing up to 5 results
|